Location: Cañada de la Miga
(34.7595°N, 106.2317°W)
Time: 03:55:11
(UTC+00:00)

Vanguard 1 Rocket - All Passes

Search period start: 28 November 2021 00:00
Search period end: 08 December 2021 00:00
Orbit: 650 x 4226 km, 34.3° (Epoch: 27 November)

Date Brightness Start Highest point End Pass type
(mag) Time Alt. Az. Time Alt. Az. Time Alt. Az.
28 Nov - 08:02:57 10° S 08:10:45 28° SE 08:23:30 10° E visible
28 Nov - 10:24:43 10° WSW 10:36:45 72° SSE 10:59:39 10° ENE visible
28 Nov - 12:50:30 10° W 13:08:01 89° S 13:34:52 10° E visible
28 Nov - 15:18:52 10° WNW 15:41:46 73° SSW 16:06:38 10° SE daylight
28 Nov - 17:50:45 10° WNW 18:13:09 40° SW 18:32:05 10° SSE daylight
29 Nov - 06:56:46 10° SE 07:00:11 12° ESE 07:04:19 10° ESE visible
29 Nov - 09:14:19 10° SW 09:24:10 54° SE 09:43:02 10° ENE visible
29 Nov - 11:38:39 10° WSW 11:53:05 87° S 12:18:38 10° E visible
29 Nov - 14:05:46 10° W 14:26:04 83° SSW 14:52:36 10° ESE daylight
29 Nov - 16:35:30 10° WNW 16:58:53 54° SW 17:21:06 10° SE daylight
29 Nov - 19:12:34 10° W 19:27:54 20° SW 19:41:05 10° SSW daylight
30 Nov - 08:04:50 10° SSW 08:12:41 35° SE 08:26:26 10° ENE visible
30 Nov - 10:27:26 10° WSW 10:39:12 78° SSE 11:02:00 10° E visible
30 Nov - 12:53:21 10° W 13:10:33 88° S 13:37:19 10° E visible
30 Nov - 15:21:34 10° WNW 15:43:49 67° SSW 16:08:39 10° SE daylight
30 Nov - 17:53:58 10° W 18:14:40 33° SW 18:33:01 10° S daylight
01 Dec - 06:56:55 10° SSE 07:02:02 17° SE 07:09:08 10° E visible
01 Dec - 09:16:51 10° SW 09:26:26 63° SSE 09:45:25 10° ENE visible
01 Dec - 11:41:32 10° W 11:55:42 89° S 12:21:04 10° E visible
01 Dec - 14:08:32 10° W 14:28:22 78° SSW 14:54:50 10° ESE daylight
01 Dec - 16:38:20 10° WNW 17:00:36 46° SW 17:22:32 10° SSE daylight
01 Dec - 19:18:46 10° W 19:29:26 14° SW 19:39:13 10° SSW daylight
02 Dec - 08:07:01 10° SSW 08:14:46 42° SE 08:29:07 10° ENE visible
02 Dec - 10:30:16 10° WSW 10:41:46 83° SSE 11:04:22 10° E visible
02 Dec - 12:56:12 10° W 13:13:04 85° S 13:39:41 10° ESE visible
02 Dec - 15:24:18 10° WNW 15:45:47 60° SSW 16:10:26 10° SE daylight
02 Dec - 17:57:42 10° W 18:16:13 26° SW 18:33:22 10° S daylight
03 Dec - 06:58:15 10° S 07:03:58 23° SE 07:12:46 10° E visible
03 Dec - 09:19:32 10° WSW 09:28:53 71° SSE 09:47:47 10° ENE visible
03 Dec - 11:44:26 10° W 11:58:20 89° S 12:23:29 10° E visible
03 Dec - 14:11:18 10° WNW 14:30:37 72° SSW 14:56:52 10° SE daylight
03 Dec - 16:41:23 10° W 17:02:17 39° SW 17:23:36 10° SSE daylight
04 Dec - 08:09:25 10° SW 08:17:01 51° SE 08:31:40 10° ENE visible
04 Dec - 10:33:10 10° W 10:44:26 87° S 11:06:46 10° E visible
04 Dec - 12:59:02 10° W 13:15:32 81° SSW 13:41:55 10° ESE visible
04 Dec - 15:27:08 10° WNW 15:47:43 52° SW 16:11:54 10° SE daylight
04 Dec - 18:02:18 10° W 18:17:51 20° SW 18:32:48 10° S daylight
05 Dec - 07:00:08 10° SSW 07:06:04 30° SE 07:15:53 10° E visible
05 Dec - 09:22:21 10° WSW 09:31:28 78° SSE 09:50:10 10° E visible
05 Dec - 11:47:21 10° W 12:00:57 87° S 12:25:51 10° ESE visible
05 Dec - 14:14:06 10° WNW 14:32:48 65° SSW 14:58:40 10° SE daylight
05 Dec - 16:44:47 10° W 17:04:01 32° SW 17:24:11 10° S daylight
06 Dec - 05:52:51 10° SSE 05:55:42 13° SE 05:59:10 10° ESE night (unlit)
06 Dec - 08:12:01 10° SW 08:19:27 60° SSE 08:34:08 10° ENE visible
06 Dec - 10:36:05 10° W 10:47:08 89° S 11:09:10 10° E visible
06 Dec - 13:01:53 10° W 13:17:57 76° SSW 13:44:00 10° ESE visible
06 Dec - 15:30:07 10° W 15:49:38 45° SW 16:13:02 10° SSE daylight
06 Dec - 18:08:40 10° WSW 18:19:38 14° SW 18:30:29 10° SSW daylight
07 Dec - 07:02:20 10° SSW 07:08:18 37° SE 07:18:44 10° E visible
07 Dec - 09:25:13 10° WSW 09:34:09 83° SSE 09:52:34 10° E visible
07 Dec - 11:50:14 10° W 12:03:34 84° SSW 12:28:08 10° ESE visible
07 Dec - 14:16:58 10° WNW 14:34:57 57° SSW 15:00:11 10° SE daylight
07 Dec - 16:48:44 10° W 17:05:49 26° SW 17:24:05 10° S daylight
